EW4612 Weather Reports


time (UTC)temp
C
wind
direction
speed
KPH
gust
KPH
rain 1hr
cm
rain 24hr
cm
rain mn
cm
humidity
%
barometer
mb
20190419063433 6 250 0.0 4.8 0.00 0.00 0.00 64 1029.5
20190419062435 5 127 0.0 0.0 0.00 0.00 0.00 69 1029.6
20190419061452 5 127 0.0 0.0 0.00 0.00 0.00 73 1029.6
20190419060422 4 266 0.0 0.0 0.00 0.00 0.00 73 1029.6
20190419055443 4 261 0.0 0.0 0.00 0.00 0.00 77 1029.6
20190419054503 3 259 0.0 0.0 0.00 0.00 0.00 77 1029.6
20190419053526 4 260 0.0 0.0 0.00 0.00 0.00 84 1029.6
20190419052529 3 261 0.0 0.0 0.00 0.00 0.00 86 1029.6
20190419051546 3 192 0.0 0.0 0.00 0.00 0.00 85 1029.5
20190419050603 3 192 0.0 0.0 0.00 0.00 0.00 86 1029.3
20190419045550 3 192 0.0 0.0 0.00 0.00 0.00 85 1029.3
20190419044611 3 148 0.0 0.0 0.00 0.00 0.00 86 1029.2
20190419043546 3 196 0.0 0.0 0.00 0.00 0.00 85 1029.2
20190419042538 3 197 0.0 0.0 0.00 0.00 0.00 85 1029.1
20190419041552 3 135 0.0 0.0 0.00 0.00 0.00 84 1029.1
20190419040523 3 63 0.0 0.0 0.00 0.00 0.00 83 1029.0
20190419035542 3 63 0.0 0.0 0.00 0.00 0.00 84 1029.0
20190419034533 3 63 0.0 0.0 0.00 0.00 0.00 85 1028.9
20190419033503 3 63 0.0 0.0 0.00 0.00 0.00 86 1028.9
20190419032428 3 63 0.0 0.0 0.00 0.00 0.00 84 1029.0
20190419031401 3 63 0.0 0.0 0.00 0.00 0.00 84 1029.0
20190419030359 3 63 0.0 0.0 0.00 0.00 0.00 83 1029.0
20190419025354 3 63 0.0 0.0 0.00 0.00 0.00 83 1028.8
20190419024326 3 63 0.0 0.0 0.00 0.00 0.00 84 1028.8
20190419023253 3 63 0.0 0.0 0.00 0.00 0.00 84 1028.7
20190419022243 3 63 0.0 0.0 0.00 0.00 0.00 84 1028.9
20190419021254 3 63 0.0 0.0 0.00 0.00 0.00 85 1028.9
20190419020307 3 63 0.0 0.0 0.00 0.00 0.00 83 1028.9
20190419015318 3 63 0.0 0.0 0.00 0.00 0.00 84 1028.9
20190419014319 3 63 0.0 0.0 0.00 0.00 0.00 84 1028.9
20190419013344 3 63 0.0 0.0 0.00 0.00 0.00 84 1028.9
20190419012314 2 63 0.0 0.0 0.00 0.00 0.00 84 1029.0
20190419011257 2 63 0.0 0.0 0.00 0.00 0.00 83 1028.9
20190419010317 3 63 0.0 0.0 0.00 0.00 0.00 83 1028.9
20190419005314 2 63 0.0 0.0 0.00 0.00 0.00 83 1028.9
20190419004318 2 63 0.0 0.0 0.00 0.00 0.00 83 1028.9
20190419003302 2 63 0.0 0.0 0.00 0.00 0.00 83 1028.9
20190419002313 3 63 0.0 0.0 0.00 0.00 0.00 82 1028.9
20190419001321 3 63 0.0 0.0 0.00 0.00 0.00 82 1028.8
20190419000340 3 63 0.0 0.0 0.00 0.00 0.00 81 1028.8
20190418235327 3 63 0.0 0.0 0.00 0.00 0.00 82 1028.9
20190418234311 3 63 0.0 0.0 0.00 0.00 0.00 82 1028.9
20190418233242 3 63 0.0 0.0 0.00 0.00 0.00 81 1028.9
20190418232232 4 63 0.0 0.0 0.00 0.00 0.00 80 1028.9
20190418231236 4 63 0.0 0.0 0.00 0.00 0.00 81 1028.9
20190418230237 4 63 0.0 0.0 0.00 0.00 0.00 80 1028.9
20190418225246 4 63 0.0 0.0 0.00 0.00 0.00 80 1028.9
20190418224239 4 63 0.0 0.0 0.00 0.00 0.00 79 1028.8
20190418223223 4 63 0.0 0.0 0.00 0.00 0.00 79 1028.8
20190418222246 5 63 0.0 0.0 0.00 0.00 0.00 79 1028.8
20190418221253 5 63 0.0 0.0 0.00 0.00 0.00 78 1028.7
20190418220251 5 63 0.0 0.0 0.00 0.00 0.00 78 1028.6
20190418215220 5 63 0.0 0.0 0.00 0.00 0.00 78 1028.5
20190418214146 5 63 0.0 0.0 0.00 0.00 0.00 76 1028.5
20190418213158 5 63 0.0 0.0 0.00 0.00 0.00 77 1028.3
20190418212143 5 63 0.0 0.0 0.00 0.00 0.00 76 1028.3
20190418211138 6 63 0.0 0.0 0.00 0.00 0.00 75 1028.1
20190418210202 5 63 0.0 0.0 0.00 0.00 0.00 74 1028.0
20190418205159 5 63 0.0 0.0 0.00 0.00 0.00 73 1027.9
20190418204215 5 63 0.0 0.0 0.00 0.00 0.00 72 1027.7
20190418203158 6 63 0.0 0.0 0.00 0.00 0.00 72 1027.6
20190418202157 6 63 0.0 0.0 0.00 0.00 0.00 70 1027.4
20190418201137 6 63 0.0 0.0 0.00 0.00 0.00 70 1027.4
20190418200147 6 63 0.0 0.0 0.00 0.00 0.00 70 1027.2
20190418195118 6 63 0.0 0.0 0.00 0.00 0.00 69 1027.1
20190418194122 6 63 0.0 0.0 0.00 0.00 0.00 67 1027.1
20190418193113 7 63 0.0 0.0 0.00 0.00 0.00 67 1027.0
20190418192056 7 63 0.0 0.0 0.00 0.00 0.00 65 1026.9
20190418191106 8 63 0.0 0.0 0.00 0.00 0.00 61 1026.7
20190418190048 8 63 0.0 0.0 0.00 0.00 0.00 61 1026.6
20190418185049 8 63 0.0 0.0 0.00 0.00 0.00 59 1026.5
20190418184048 8 63 0.0 1.6 0.00 0.00 0.00 60 1026.4
20190418183042 8 63 0.0 0.0 0.00 0.00 0.00 57 1026.2
20190418182051 8 63 0.0 3.2 0.00 0.00 0.00 56 1026.1
20190418181021 8 62 1.6 12.9 0.00 0.00 0.00 56 1025.9
20190418180031 8 57 1.6 6.4 0.00 0.00 0.00 56 1025.8
20190418175047 9 76 0.0 3.2 0.00 0.00 0.00 54 1025.7
20190418174040 9 77 0.0 0.0 0.00 0.00 0.00 54 1025.5
20190418173006 9 121 0.0 0.0 0.00 0.00 0.00 52 1025.3
20190418171945 10 132 1.6 12.9 0.00 0.00 0.00 49 1025.2
20190418170937 10 140 1.6 9.7 0.00 0.00 0.00 48 1025.0
20190418165936 10 144 1.6 9.7 0.00 0.00 0.00 48 1024.9
20190418164937 10 94 1.6 11.3 0.00 0.00 0.00 47 1024.9
20190418163925 10 134 3.2 12.9 0.00 0.00 0.00 47 1024.6
20190418162915 10 141 1.6 14.5 0.00 0.00 0.00 46 1024.6
20190418161923 11 120 1.6 14.5 0.00 0.00 0.00 45 1024.4
20190418160933 11 125 1.6 6.4 0.00 0.00 0.00 46 1024.4
20190418155951 11 134 4.8 16.1 0.00 0.00 0.00 46 1024.3
20190418154941 11 101 4.8 16.1 0.00 0.00 0.00 46 1024.2
20190418153923 11 138 4.8 16.1 0.00 0.00 0.00 45 1024.2
20190418152929 11 111 6.4 16.1 0.00 0.00 0.00 46 1024.1
20190418151937 11 90 6.4 24.1 0.00 0.00 0.00 45 1024.1
20190418150943 12 73 9.7 24.1 0.00 0.00 0.00 45 1024.0
20190418145952 12 146 12.9 27.4 0.00 0.00 0.00 46 1024.0
20190418144922 12 101 16.1 27.4 0.00 0.00 0.00 45 1023.9
20190418143917 12 115 12.9 22.5 0.00 0.00 0.00 45 1023.8
20190418142906 12 95 11.3 22.5 0.00 0.00 0.00 45 1023.8
20190418141906 13 153 6.4 16.1 0.00 0.00 0.00 44 1023.7
20190418140847 13 132 6.4 22.5 0.00 0.00 0.00 41 1023.7
20190418135859 13 117 6.4 22.5 0.00 0.00 0.00 44 1023.6
20190418134912 12 109 8.0 20.9 0.00 0.00 0.00 44 1023.6
20190418133906 12 187 8.0 19.3 0.00 0.00 0.00 48 1023.5
20190418132905 13 133 9.7 22.5 0.00 0.00 0.00 45 1023.5
20190418131902 13 111 6.4 22.5 0.00 0.00 0.00 47 1023.4
20190418130832 12 55 4.8 14.5 0.00 0.00 0.00 45 1023.5
20190418125830 13 103 6.4 16.1 0.00 0.00 0.00 48 1023.5
20190418124811 12 93 6.4 17.7 0.00 0.00 0.00 49 1023.4
20190418123749 12 93 9.7 17.7 0.00 0.00 0.00 50 1023.5
20190418122808 13 115 8.0 17.7 0.00 0.00 0.00 52 1023.5
20190418121827 13 100 6.4 17.7 0.00 0.00 0.00 52 1023.5
20190418120849 12 111 8.0 17.7 0.00 0.00 0.00 49 1023.6
20190418115819 12 87 8.0 19.3 0.00 0.00 0.00 48 1023.5
20190418114826 12 140 8.0 19.3 0.00 0.00 0.00 46 1023.6
20190418113841 12 109 8.0 19.3 0.00 0.00 0.00 50 1023.6
20190418112832 12 116 4.8 19.3 0.00 0.00 0.00 51 1023.5
20190418111849 12 117 8.0 19.3 0.00 0.00 0.00 49 1023.7
20190418110824 12 132 8.0 19.3 0.00 0.00 0.00 49 1023.7
20190418105808 11 74 6.4 16.1 0.00 0.00 0.00 53 1023.7
20190418104819 11 113 6.4 16.1 0.00 0.00 0.00 50 1023.7
20190418103829 11 137 6.4 16.1 0.00 0.00 0.00 53 1023.7
20190418102835 11 112 3.2 12.9 0.00 0.00 0.00 49 1023.8
20190418101850 11 110 4.8 14.5 0.00 0.00 0.00 52 1023.8
20190418100836 11 121 1.6 12.9 0.00 0.00 0.00 52 1024.0
20190418095833 11 80 4.8 12.9 0.00 0.00 0.00 56 1024.1
20190418094851 10 88 3.2 12.9 0.00 0.00 0.00 55 1024.2
20190418093842 10 152 6.4 16.1 0.00 0.00 0.00 51 1024.3
20190418092826 10 136 6.4 16.1 0.00 0.00 0.00 51 1024.3
20190418090812 10 181 4.8 12.9 0.00 0.00 0.00 57 1024.5
20190418085813 9 139 4.8 11.3 0.00 0.00 0.00 54 1024.5
20190418084757 8 113 6.4 11.3 0.00 0.00 0.00 53 1024.5
20190418083725 8 108 3.2 12.9 0.00 0.00 0.00 55 1024.5
20190418082743 8 112 6.4 12.9 0.00 0.00 0.00 57 1024.7
20190418081723 8 102 3.2 11.3 0.00 0.00 0.00 55 1024.7
20190418080702 7 119 4.8 11.3 0.00 0.00 0.00 56 1024.7
20190418075706 7 115 1.6 9.7 0.00 0.00 0.00 54 1024.8
20190418074716 7 88 0.0 0.0 0.00 0.00 0.00 55 1024.8
20190418073742 7 80 0.0 0.0 0.00 0.00 0.00 55 1024.8
20190418072756 6 40 0.0 3.2 0.00 0.00 0.00 59 1024.8
20190418071818 6 89 1.6 3.2 0.00 0.00 0.00 57 1024.9
20190418070830 6 87 0.0 3.2 0.00 0.00 0.00 60 1025.0
20190418065834 6 63 0.0 1.6 0.00 0.00 0.00 63 1025.1
20190418064811 5 73 0.0 1.6 0.00 0.00 0.00 63 1025.0
20190418063834 4 72 0.0 0.0 0.00 0.00 0.00 71 1024.9